Погода в Нарве

Россия / Красноярский край     55°24′37″N   93°38′48″E
темп.,
°C
ветер,
м/с
пор.,
м/с
влажн.,
%
обл.,
%
осадки,
мм/ч
давл.,
гПа
погр.,
м
25 октября, пн
пн2501:00+4зюз71579100 2.4 10201427
04:00+4зюз61373100 0.1 10221356
07:00+3юз61390100 0.1 1022804
10:00+4юз61395100 0.3 10211046
13:00+6юз71480100 0.4 10181126
16:00+7юз71482100 0.1 10161153
19:00+7юз81677100 0.1 10151232
22:00+8зюз81768100 0.0 10141186
26 октября, вт
вт2601:00+7зюз8176498 0.0 10151137
04:00+6зюз61466100 0.0 10171136
07:00+5зюз41272100 0.0 1019675
10:00+6юз3970100 0.0 1018632
13:00+9ююз3756100 0.0 1015648
16:00+9ю2463100 0.0 1012117
19:00+6ююв2273100 0.0 101034
22:00+5ююз31478100 0.0 1008309
27 октября, ср
ср2701:00+8юз61754100 0.0 1007822
04:00+8юз82048100 0.0 10081469
07:00+7зюз81853100 0.0 10111670
10:00+2з7157397 0.1 10181348
13:00+2з61349100 0.1 10211427
16:00+1з51044100 0.0 10231186
19:00−2зюз275566 0.0 1025262
22:00−3юз235876 0.0 102573
28 октября, чт
чт2801:00−3юз2958100 0.0 1025319
04:00−3зюз41060100 0.0 1026781
07:00−3зюз41061100 0.0 1027850
10:00−1зюз5105599 0.0 10281248
13:000з6947100 0.0 10281494
16:000з485018 0.0 10281293
19:00−3зюз2265100 0.0 103026
22:00−3ююз116381 0.0 103025
29 октября, пт
пт2901:00−4ю11635 0.0 102917
04:00−4ююв22736 0.0 102923
07:00−4ю227984 0.0 102738
10:000ю255770 0.0 1026187
13:00+5ююз31255100 0.0 1022854
16:00+5юз41359100 0.0 1021736
19:00+3юз51664100 0.0 1021602
22:00+3юз5156550 0.0 1021689